Time,TemperatureF,DewpointF,PressureIn,WindDirection,WindDirectionDegrees,WindSpeedMPH,WindSpeedGustMPH,Humidity,HourlyPrecipIn,Conditions,Clouds,dailyrainin,SoftwareType,DateUTC
2013-09-15 00:03:00,-999.0,-99.9,29.97,NNE,12,5.0,9.0,-999,-99.99,,,-99.99,,2013-09-15 04:03:00,
2013-09-15 00:14:00,57.0,55.0,29.97,NNE,12,5.0,9.0,93,0.00,,,0.00,,2013-09-15 04:14:00,
2013-09-15 00:24:00,57.0,54.0,29.97,NNE,12,6.0,11.0,91,0.00,,,0.00,,2013-09-15 04:24:00,
2013-09-15 00:43:00,57.0,54.0,29.97,North,7,7.0,10.0,91,0.00,,,0.00,,2013-09-15 04:43:00,
2013-09-15 00:54:00,57.0,55.0,29.97,North,7,6.0,8.0,92,0.00,,,0.00,,2013-09-15 04:54:00,
2013-09-15 01:13:00,57.0,54.0,29.97,North,7,6.0,10.0,91,0.00,,,0.00,,2013-09-15 05:13:00,
2013-09-15 01:22:00,56.0,53.0,29.98,North,7,8.0,11.0,90,0.00,,,0.00,,2013-09-15 05:22:00,
2013-09-15 01:42:00,56.0,53.0,29.98,North,7,8.0,12.0,89,0.00,,,0.00,,2013-09-15 05:42:00,
2013-09-15 01:52:00,56.0,53.0,29.99,North,7,7.0,11.0,89,0.00,,,0.00,,2013-09-15 05:52:00,
2013-09-15 02:12:00,56.0,53.0,30.00,NNE,17,7.0,9.0,90,0.00,,,0.00,,2013-09-15 06:12:00,
2013-09-15 02:21:00,56.0,53.0,30.01,NNE,12,6.0,9.0,89,0.00,,,0.00,,2013-09-15 06:21:00,
2013-09-15 02:42:00,55.0,52.0,30.01,North,7,7.0,10.0,88,0.00,,,0.00,,2013-09-15 06:42:00,
2013-09-15 02:52:00,55.0,52.0,30.01,North,7,5.0,9.0,88,0.00,,,0.00,,2013-09-15 06:52:00,
2013-09-15 03:11:00,55.0,52.0,30.01,North,7,4.0,8.0,88,0.00,,,0.00,,2013-09-15 07:11:00,
2013-09-15 03:22:00,54.0,51.0,30.00,North,7,0.0,3.0,89,0.00,,,0.00,,2013-09-15 07:22:00,
2013-09-15 03:42:00,53.0,50.0,30.01,North,7,0.0,2.0,90,0.00,,,0.00,,2013-09-15 07:42:00,
2013-09-15 03:52:00,52.0,49.0,30.01,North,7,0.0,2.0,91,0.00,,,0.00,,2013-09-15 07:52:00,
2013-09-15 04:11:00,52.0,50.0,30.01,North,7,0.0,2.0,92,0.00,,,0.00,,2013-09-15 08:11:00,
2013-09-15 04:22:00,52.0,50.0,30.02,North,7,0.0,2.0,93,0.00,,,0.00,,2013-09-15 08:22:00,
2013-09-15 04:43:00,52.0,50.0,30.03,North,7,0.0,2.0,93,0.00,,,0.00,,2013-09-15 08:43:00,
2013-09-15 04:52:00,51.0,49.0,30.02,North,7,0.0,1.0,94,0.00,,,0.00,,2013-09-15 08:52:00,
2013-09-15 05:12:00,51.0,50.0,30.03,North,7,0.0,3.0,95,0.00,,,0.00,,2013-09-15 09:12:00,
2013-09-15 05:22:00,52.0,50.0,30.03,North,7,0.0,2.0,94,0.00,,,0.00,,2013-09-15 09:22:00,
2013-09-15 05:43:00,51.0,49.0,30.04,North,7,0.0,2.0,94,0.00,,,0.00,,2013-09-15 09:43:00,
2013-09-15 05:53:00,51.0,49.0,30.04,North,7,0.0,2.0,94,0.00,,,0.00,,2013-09-15 09:53:00,
2013-09-15 06:13:00,50.0,48.0,30.05,North,7,2.0,3.0,94,0.00,,,0.00,,2013-09-15 10:13:00,
2013-09-15 06:23:00,49.0,48.0,30.05,North,7,1.0,2.0,95,0.00,,,0.00,,2013-09-15 10:23:00,
2013-09-15 06:43:00,49.0,48.0,30.05,North,7,0.0,2.0,96,0.00,,,0.00,,2013-09-15 10:43:00,
2013-09-15 06:53:00,48.0,47.0,30.06,North,7,0.0,2.0,96,0.00,,,0.00,,2013-09-15 10:53:00,
2013-09-15 07:12:00,48.0,47.0,30.06,North,7,1.0,2.0,97,0.00,,,0.00,,2013-09-15 11:12:00,
2013-09-15 07:22:00,49.0,48.0,30.06,North,7,1.0,2.0,97,0.00,,,0.00,,2013-09-15 11:22:00,
2013-09-15 07:42:00,50.0,49.0,30.07,North,7,1.0,2.0,98,0.00,,,0.00,,2013-09-15 11:42:00,
2013-09-15 07:52:00,51.0,50.0,30.07,North,7,1.0,2.0,97,0.00,,,0.00,,2013-09-15 11:52:00,
2013-09-15 08:12:00,53.0,52.0,30.08,North,7,1.0,3.0,97,0.00,,,0.00,,2013-09-15 12:12:00,
2013-09-15 08:21:00,55.0,53.0,30.07,North,7,1.0,3.0,94,0.00,,,0.00,,2013-09-15 12:21:00,
2013-09-15 08:52:00,57.0,54.0,30.08,North,360,2.0,5.0,90,0.00,,,0.00,,2013-09-15 12:52:00,
2013-09-15 09:11:00,57.0,54.0,30.08,WSW,251,3.0,8.0,89,0.00,,,0.00,,2013-09-15 13:11:00,
2013-09-15 09:22:00,57.0,53.0,30.08,West,262,2.0,6.0,88,0.00,,,0.00,,2013-09-15 13:22:00,
2013-09-15 09:52:00,58.0,53.0,30.09,WSW,257,4.0,7.0,84,0.00,,,0.00,,2013-09-15 13:52:00,
2013-09-15 10:12:00,59.0,54.0,30.09,West,273,4.0,9.0,82,0.00,,,0.00,,2013-09-15 14:12:00,
2013-09-15 10:22:00,59.0,52.0,30.09,West,260,5.0,10.0,79,0.00,,,0.00,,2013-09-15 14:22:00,
2013-09-15 15:22:00,61.0,54.0,30.03,WSW,248,9.0,16.0,78,0.00,,,0.00,,2013-09-15 19:22:00,
2013-09-15 15:52:00,62.0,55.0,30.03,West,259,7.0,16.0,79,0.00,,,0.00,,2013-09-15 19:52:00,
2013-09-15 16:11:00,61.0,55.0,30.02,WSW,252,9.0,17.0,80,0.00,,,0.00,,2013-09-15 20:11:00,
2013-09-15 16:22:00,61.0,55.0,30.02,SW,229,7.0,16.0,80,0.00,,,0.00,,2013-09-15 20:22:00,
2013-09-15 16:42:00,60.0,55.0,30.02,West,265,8.0,16.0,83,0.00,,,0.00,,2013-09-15 20:42:00,
2013-09-15 16:53:00,61.0,55.0,30.02,West,264,6.0,17.0,81,0.00,,,0.00,,2013-09-15 20:53:00,
2013-09-15 17:11:00,60.0,55.0,30.01,WSW,239,10.0,19.0,83,0.00,,,0.00,,2013-09-15 21:11:00,
2013-09-15 17:22:00,60.0,55.0,30.02,WNW,287,8.0,14.0,85,0.00,,,0.00,,2013-09-15 21:22:00,
2013-09-15 17:44:00,60.0,56.0,30.02,West,272,5.0,12.0,86,0.00,,,0.00,,2013-09-15 21:44:00,
2013-09-15 17:54:00,59.0,54.0,30.02,SW,221,7.0,15.0,84,0.00,,,0.00,,2013-09-15 21:54:00,
2013-09-15 18:14:00,58.0,54.0,30.01,WSW,237,7.0,11.0,87,0.00,,,0.00,,2013-09-15 22:14:00,
2013-09-15 18:23:00,58.0,55.0,30.01,SW,233,4.0,11.0,89,0.00,,,0.00,,2013-09-15 22:23:00,
2013-09-15 18:44:00,58.0,55.0,30.01,SW,235,5.0,12.0,89,0.00,,,0.00,,2013-09-15 22:44:00,
2013-09-15 18:53:00,57.0,54.0,30.01,SW,229,5.0,13.0,90,0.00,,,0.00,,2013-09-15 22:53:00,
2013-09-15 19:12:00,56.0,53.0,30.01,WSW,239,5.0,7.0,91,0.00,,,0.00,,2013-09-15 23:12:00,
2013-09-15 19:22:00,56.0,53.0,30.01,SW,228,6.0,11.0,91,0.00,,,0.00,,2013-09-15 23:22:00,
2013-09-15 19:42:00,55.0,53.0,30.01,SW,231,5.0,9.0,92,0.00,,,0.00,,2013-09-15 23:42:00,
2013-09-15 19:52:00,55.0,53.0,30.01,SW,226,5.0,9.0,93,0.00,,,0.00,,2013-09-15 23:52:00,
2013-09-15 20:11:00,55.0,53.0,30.01,SW,235,6.0,11.0,93,0.00,,,0.00,,2013-09-16 00:11:00,
2013-09-15 20:22:00,56.0,53.0,30.01,SW,228,5.0,12.0,90,0.00,,,0.00,,2013-09-16 00:22:00,
2013-09-15 20:42:00,56.0,53.0,30.02,SW,233,6.0,9.0,91,0.00,,,0.00,,2013-09-16 00:42:00,
2013-09-15 20:52:00,56.0,53.0,30.02,SW,228,5.0,8.0,91,0.00,,,0.00,,2013-09-16 00:52:00,
2013-09-15 21:12:00,56.0,54.0,30.01,SW,232,6.0,11.0,92,0.00,,,0.00,,2013-09-16 01:12:00,
2013-09-15 21:21:00,56.0,54.0,30.01,SW,229,7.0,11.0,92,0.00,,,0.00,,2013-09-16 01:21:00,
2013-09-15 21:42:00,56.0,54.0,30.01,SW,231,5.0,13.0,92,0.00,,,0.00,,2013-09-16 01:42:00,
2013-09-15 21:52:00,56.0,54.0,30.01,SW,229,6.0,8.0,93,0.00,,,0.00,,2013-09-16 01:52:00,
2013-09-15 22:12:00,56.0,54.0,30.01,SW,219,6.0,9.0,93,0.00,,,0.00,,2013-09-16 02:12:00,
2013-09-15 22:22:00,56.0,54.0,29.99,SW,214,5.0,10.0,94,0.00,,,0.00,,2013-09-16 02:22:00,
2013-09-15 22:42:00,56.0,54.0,30.00,SW,236,6.0,9.0,94,0.00,,,0.00,,2013-09-16 02:42:00,
2013-09-15 22:52:00,56.0,54.0,30.00,SW,235,6.0,11.0,94,0.00,,,0.00,,2013-09-16 02:52:00,
2013-09-15 23:11:00,56.0,55.0,29.99,SW,230,5.0,9.0,95,0.00,,,0.00,,2013-09-16 03:11:00,
2013-09-15 23:22:00,57.0,56.0,29.99,SW,233,5.0,11.0,95,0.00,,,0.00,,2013-09-16 03:22:00,
2013-09-15 23:45:00,57.0,56.0,29.99,WSW,243,6.0,11.0,95,0.00,,,0.00,,2013-09-16 03:45:00,
2013-09-15 23:54:00,57.0,56.0,29.99,WSW,237,5.0,9.0,95,0.00,,,0.00,,2013-09-16 03:54:00,